This demonstration page uses our WeatherBlox Daily Observations layout. Learn more.

Left ArrowRight Arrow

40.92501, -98.34201

Hourly Observations for August 4, 2020

Temp ( °F °C ) Dew Point ( °F °C ) Humidity (%) Winds ( mph kmh ) Pressure ( in mb ) Visibility ( mi km ) Precip ( " mm )
12:53 am 00:53 Clear 63 17.2 55 12.8 76 76 SSE 8 13 30.16 1021 10 16 0.00 0.00
1:53 am 01:53 Clear 62 16.7 53 11.7 73 73 SSE 9 15 30.14 1021 10 16 0.00 0.00
2:53 am 02:53 Clear 61 16.1 53 11.7 75 75 SSE 9 15 30.12 1020 10 16 0.00 0.00
3:53 am 03:53 Clear 60 15.6 52 11.1 75 75 SSE 9 15 30.12 1020 10 16 0.00 0.00
4:53 am 04:53 Mostly Clear 58 14.4 52 11.1 81 81 S 6 9 30.13 1020 10 16 0.00 0.00
5:53 am 05:53 Clear 58 14.4 51 10.6 78 78 S 8 13 30.13 1020 10 16 0.00 0.00
6:53 am 06:53 Mostly Sunny 57 13.9 51 10.6 81 81 S 6 9 30.15 1021 10 16 0.00 0.00
7:53 am 07:53 Mostly Cloudy 61 16.1 52 11.1 72 72 S 5 7 30.15 1021 10 16 0.00 0.00
8:53 am 08:53 Mostly Cloudy 64 17.8 52 11.1 65 65 S 6 9 30.16 1022 10 16 0.00 0.00
9:53 am 09:53 Cloudy 64 17.8 52 11.1 65 65 S 7 11 30.17 1022 10 16 0.00 0.00
10:53 am 10:53 Sunny 63 17.2 53 11.7 70 70 S 8 13 30.17 1022 10 16 0.00 0.00
11:53 am 11:53 Cloudy 63 17.2 56 13.3 78 78 S 15 24 30.13 1020 10 16 0.00 0.00
12:53 pm 12:53 Sunny 66 18.9 53 11.7 63 63 S 8 13 30.16 1021 10 16 0.00 0.00
1:53 pm 13:53 Sunny 70 21.1 55 12.8 59 59 S 10 17 30.14 1021 10 16 0.00 0.00
2:53 pm 14:53 Sunny 72 22.2 52 11.1 50 50 SSE 13 20 30.13 1020 10 16 0.00 0.00
3:53 pm 15:53 Sunny 74 23.3 54 12.2 50 50 S 13 20 30.13 1020 10 16 0.00 0.00
4:53 pm 16:53 Sunny 74 23.3 55 12.8 52 52 SSE 13 20 30.11 1020 10 16 0.00 0.00
5:53 pm 17:53 Sunny 73 22.8 54 12.2 51 51 SSE 14 22 30.09 1019 10 16 0.00 0.00
6:53 pm 18:53 Mostly Cloudy 72 22.2 56 13.3 57 57 S 16 26 30.07 1018 10 16 0.00 0.00
7:53 pm 19:53 Partly Cloudy 69 20.6 55 12.8 61 61 SSE 10 17 30.06 1018 10 16 0.00 0.00
8:53 pm 20:53 Cloudy 69 20.6 55 12.8 61 61 SSE 13 20 30.06 1018 10 16 0.00 0.00
9:53 pm 21:53 Cloudy 68 20 56 13.3 65 65 SSE 13 20 30.06 1018 10 16 0.00 0.00
10:53 pm 22:53 Cloudy 67 19.4 56 13.3 68 68 S 10 17 30.07 1018 10 16 0.00 0.00
11:53 pm 23:53 Partly Cloudy 64 17.8 57 13.9 78 78 SSE 12 19 30.03 1017 10 16 0.00 0.00

Powered by AerisWeather